FW3675 Weather Reports


Display with metric or nautical units.
time (UTC)temp
F
wind
direction
speed
MPH
gust
MPH
rain 1hr
in
rain 24hr
in
rain mn
in
humidity
%
barometer
mb
20230130153108 3 18 2.0 3.0 0.00 0.00 0.00 79 1035.2
20230130151553 1 344 0.0 2.0 0.00 0.00 0.00 82 1035.2
20230130150047 -1 295 0.0 1.0 0.00 0.00 0.00 86 1034.9
20230130144543 -4 28 0.0 2.0 0.00 0.00 0.00 84 1035.0
20230130143039 -6 346 2.0 4.0 0.00 0.00 0.00 84 1034.6
20230130141542 -6 340 1.0 2.0 0.00 0.00 0.00 83 1034.4
20230130140030 -6 269 0.0 2.0 0.00 0.00 0.00 83 1034.1
20230130134525 -6 223 1.0 2.0 0.00 0.00 0.00 83 1034.1
20230130133032 -6 46 0.0 2.0 0.00 0.00 0.00 83 1034.3
20230130131516 -6 331 1.0 2.0 0.00 0.00 0.00 83 1034.4
20230130130014 -6 9 1.0 3.0 0.00 0.00 0.00 82 1034.3
20230130124507 -6 117 0.0 2.0 0.00 0.00 0.00 82 1034.4
20230130123003 -6 72 1.0 3.0 0.00 0.00 0.00 82 1034.2
20230130121559 -6 41 2.0 3.0 0.00 0.00 0.00 82 1034.1
20230130120057 -6 20 2.0 4.0 0.00 0.00 0.00 82 1034.2
20230130114554 -6 6 3.0 5.0 0.00 0.00 0.00 83 1034.3
20230130113048 -5 1 3.0 5.0 0.00 0.00 0.00 82 1034.4
20230130111541 -5 351 3.0 5.0 0.00 0.00 0.00 82 1034.4
20230130110108 -5 6 3.0 4.0 0.00 0.00 0.00 82 1034.4
20230130104532 -4 79 2.0 3.0 0.00 0.00 0.00 82 1034.7
20230130103027 -4 72 1.0 2.0 0.00 0.00 0.00 82 1034.8
20230130101524 -4 59 1.0 4.0 0.00 0.00 0.00 82 1034.8
20230130100024 -4 96 2.0 4.0 0.00 0.00 0.00 82 1034.8
20230130094522 -3 96 2.0 4.0 0.00 0.00 0.00 82 1034.8
20230130093013 -3 108 3.0 5.0 0.00 0.00 0.00 81 1034.8
20230130091506 -3 72 2.0 5.0 0.00 0.00 0.00 81 1034.8
20230130090001 -3 88 4.0 7.0 0.00 0.00 0.00 81 1034.5
20230130084557 -3 103 3.0 6.0 0.00 0.00 0.00 81 1034.4
20230130083053 -2 86 3.0 6.0 0.00 0.00 0.00 82 1034.4
20230130081559 -2 86 3.0 6.0 0.00 0.00 0.00 82 1034.5
20230130080048 -3 77 3.0 8.0 0.00 0.00 0.00 82 1034.6
20230130074540 -2 95 3.0 6.0 0.00 0.00 0.00 82 1034.7
20230130073035 -2 84 4.0 6.0 0.00 0.00 0.00 82 1034.9
20230130071530 -2 86 4.0 7.0 0.00 0.00 0.00 82 1035.1
20230130070026 -2 135 3.0 8.0 0.00 0.00 0.00 82 1035.2
20230130064529 -2 120 4.0 8.0 0.00 0.00 0.00 83 1035.5
20230130063018 -2 93 4.0 8.0 0.00 0.00 0.00 82 1035.7
20230130061512 -1 94 4.0 8.0 0.00 0.00 0.00 82 1035.8
20230130060015 -1 93 3.0 6.0 0.00 0.00 0.00 82 1035.8
20230130054508 -1 65 3.0 7.0 0.00 0.00 0.00 82 1036.0
20230130053104 -1 84 3.0 6.0 0.00 0.00 0.00 82 1035.9
20230130051557 -1 72 3.0 7.0 0.00 0.00 0.00 83 1035.8
20230130050050 -1 46 5.0 8.0 0.00 0.00 0.00 82 1035.7
20230130044546 -1 82 5.0 9.0 0.00 0.00 0.00 82 1035.8
20230130043041 -1 72 5.0 8.0 0.00 0.00 0.00 82 1035.8
20230130041540 -1 32 4.0 9.0 0.00 0.00 0.00 82 1035.6
20230130040040 0 41 4.0 8.0 0.00 0.00 0.00 82 1035.4
20230130034528 0 77 6.0 9.0 0.00 0.00 0.00 82 1035.2
20230130033024 0 79 6.0 9.0 0.00 0.00 0.00 82 1035.3
20230130031522 0 86 4.0 8.0 0.00 0.00 0.00 83 1034.9
20230130030016 0 86 5.0 8.0 0.00 0.00 0.00 83 1034.8
20230130024510 0 65 4.0 8.0 0.00 0.00 0.00 83 1034.6
20230130023010 0 69 3.0 6.0 0.00 0.00 0.00 83 1034.6
20230130021502 0 89 4.0 6.0 0.00 0.00 0.00 83 1034.3
20230130020056 0 86 3.0 6.0 0.00 0.00 0.00 83 1034.2
20230130014556 0 95 3.0 6.0 0.00 0.00 0.00 84 1034.0
20230130013055 0 76 4.0 6.0 0.00 0.00 0.00 83 1033.4
20230130011549 0 89 2.0 5.0 0.00 0.00 0.00 84 1033.3
20230130010042 0 63 4.0 6.0 0.00 0.00 0.00 83 1033.0
20230130004538 0 76 3.0 6.0 0.00 0.00 0.00 83 1032.6
20230130003030 0 39 3.0 5.0 0.00 0.00 0.00 83 1032.5
20230130001526 0 68 2.0 7.0 0.00 0.00 0.00 83 1032.1
20230130000022 0 34 4.0 7.0 0.00 0.00 0.00 83 1031.7
20230129234523 0 54 6.0 9.0 0.00 0.00 0.00 82 1031.6
20230129233013 1 67 6.0 9.0 0.00 0.00 0.00 82 1031.4
20230129231511 1 46 6.0 8.0 0.00 0.00 0.00 82 1031.2
20230129230005 2 27 7.0 9.0 0.00 0.00 0.00 81 1031.0
20230129224603 2 58 5.0 9.0 0.00 0.00 0.00 81 1030.8
20230129223056 2 11 4.0 9.0 0.00 0.00 0.00 82 1030.1
20230129221552 3 30 6.0 10.0 0.00 0.00 0.00 81 1030.0
20230129220118 3 18 5.0 9.0 0.00 0.00 0.00 81 1029.8
20230129214543 3 76 6.0 11.0 0.00 0.00 0.00 81 1029.5
20230129213048 3 63 6.0 10.0 0.00 0.00 0.00 81 1029.4
20230129211535 3 51 6.0 9.0 0.00 0.00 0.00 81 1028.8
20230129210029 3 61 6.0 9.0 0.00 0.00 0.00 82 1028.6
20230129204533 3 51 5.0 10.0 0.00 0.00 0.00 81 1028.2
20230129203026 3 49 8.0 12.0 0.00 0.00 0.00 81 1028.0
20230129201520 3 23 8.0 11.0 0.00 0.00 0.00 81 1027.9
20230129200011 3 44 7.0 10.0 0.00 0.00 0.00 81 1027.8
20230129194507 4 27 8.0 11.0 0.00 0.00 0.00 80 1027.7
20230129193003 5 23 8.0 11.0 0.00 0.00 0.00 80 1027.7
20230129191609 5 44 5.0 8.0 0.00 0.00 0.00 80 1027.6
20230129190105 5 23 6.0 11.0 0.00 0.00 0.00 80 1027.6
20230129184630 5 39 6.0 9.0 0.00 0.00 0.00 82 1027.5
20230129183046 4 41 6.0 10.0 0.00 0.00 0.00 82 1027.7
20230129181543 4 23 6.0 10.0 0.00 0.00 0.00 82 1027.7
20230129180038 4 44 5.0 9.0 0.00 0.00 0.00 82 1027.8
20230129174532 4 30 7.0 10.0 0.00 0.00 0.00 83 1027.7
20230129173028 3 34 7.0 10.0 0.00 0.00 0.00 83 1027.6
20230129171538 3 1 7.0 10.0 0.00 0.00 0.00 83 1027.6
20230129170020 3 34 5.0 9.0 0.00 0.00 0.00 83 1027.4
20230129164515 3 25 5.0 8.0 0.00 0.00 0.00 84 1027.2
20230129163013 2 37 5.0 9.0 0.00 0.00 0.00 84 1027.1
20230129161506 2 44 6.0 10.0 0.00 0.00 0.00 84 1026.7
20230129160005 2 33 5.0 9.0 0.00 0.00 0.00 84 1026.6
20230129154606 1 21 6.0 9.0 0.00 0.00 0.00 84 1026.3